Location: ?????????
(53.2086°N, 54.0693°E)
Time: 18:17:26
(UTC+00:00)

Cosmos 2237 Rocket - Pass Details

Date: 08 December 2019
Orbit: 836 x 849 km, 71.0° (Epoch: 25 January)

Event Time Altitude Azimuth Distance (km) Brightness Sun altitude
Rises 12:55:54 0° 154° (SSE) 3,402 5.4 -7.0°
Reaches altitude 10° 12:59:18 10° 133° (SE) 2,472 4.5 -7.4°
Maximum altitude 13:02:33 16° 98° (E) 2,093 3.8 -7.8°
Enters shadow 13:05:48 10° 62° (ENE) 2,478 3.9 -8.3°
